FREGAT DEB, 52959

Orbit data source: Space-Track

FREGAT DEB, 52959 is space debris in LEO originally from a launch on Mon, 18 Jul 2011 UTC launched from the Tyuratam Missile And Space Complex (TTMTR). Debris objects in space refer to the collection of defunct objects orbiting the Earth. Examples of debris include non-operational satellites, rocket bodies, and fragments generated from explosions, collisions, or faulty payload assembly.

Loading next visibility...
Identifier
52959, 2011-037PN
Orbit
LEO
Country
Flag of CISCIS
Related business
Manufacturer
Lavochkin
Mission
Spacecraft
Bus & Motor
Unknown
Mass
Unknown
Launch date (UTC)
2011-07-18 (15 years ago)
Launch vehicle
Unknown
Launch site
Tyuratam Missile And Space Complex (TTMTR)
Object type
Payload
Rocket body
Debris
Shape & HBR
Unknown shape, 1.1 m
Radar Cross Section
Small (<0.1 m²)

Expand to show TLE details & history
Last TLE update: 2 days ago

TLE from 2 days ago
0 FREGAT DEB
1 52959U 11037PN  26254.96631824  .00008580  00000-0  16440-2 0  9998
2 52959  51.4780  97.6079 1434367 186.1595 171.9757 12.23526446  3801
Epoch: 2026-09-11T23:11Z
TLE epoch observation values (Epoch: 2026-09-11T23:11:29.895Z)
Latitude
-0.00001°
Longitude
118.75124°
Altitude
2,710.333 km
Speed
6.135 km/s
True Right ascension
06h 30m 25s
True Declination
0° 00' 00"
Sunlit
Object was in daylight at epoch
Visualization orbit readout
Latitude
Unknown
Longitude
Unknown
Altitude
Unknown
Speed
Unknown
Apparent Right ascension
Unknown
Apparent Declination
Unknown
Sunlit
N/A
Visualization observer readout
Local Sidereal Time
14:18:13
Azimuth
Unknown
Elevation
Unknown
Doppler factor
Unknown
Orbital elements
Apogee altitude
2,718.849 km
Perigee altitude
436.533 km
Semi-major axis
7,955.828 km
Eccentricity
0.14344
Inclination
51.478°
RAAN
97.6079°
Arg. of periapsis
186.1595°
True anomaly
173.92227°
Mean anomaly
171.9757°
Eccentric anomaly
172.98009°
Mean motion
3.05855 °/min
Orbital period
117.7 mins
BSTAR
0.001644
Loading maneuver chart data...
Computing Atmospheric mass density...
Loading historical data...
Loading historical data...
Loading historical data...
Loading historical data...
Loading historical data...
Loading historical data...
Loading historical data...

Documentation

Showing up to 5 results
|